TimePST,TemperatureF,Dew PointF,Humidity,Sea Level PressureIn,VisibilityMPH,Wind Direction,Wind SpeedMPH,Gust SpeedMPH,PrecipitationIn,Events,Conditions,WindDirDegrees,DateUTC
12:53 AM,37.9,34.0,86,30.09,4.0,East,4.6,-,N/A,,Overcast,100,2013-02-18 08:53:00
1:53 AM,37.9,34.0,86,30.07,4.0,ENE,4.6,-,N/A,,Overcast,60,2013-02-18 09:53:00
2:53 AM,37.0,34.0,89,30.06,5.0,Calm,Calm,-,N/A,,Overcast,0,2013-02-18 10:53:00
3:45 AM,37.4,33.8,87,30.03,5.0,East,3.5,-,N/A,,Haze,90,2013-02-18 11:45:00
3:53 AM,37.9,34.0,86,30.04,5.0,Calm,Calm,-,N/A,,Overcast,0,2013-02-18 11:53:00
4:38 AM,37.4,33.8,87,30.01,5.0,East,3.5,-,0.00,,Overcast,100,2013-02-18 12:38:00
4:49 AM,37.4,33.8,87,30.01,5.0,East,3.5,-,0.00,,Overcast,90,2013-02-18 12:49:00
4:53 AM,37.0,33.1,86,30.01,5.0,East,4.6,-,0.00,,Overcast,90,2013-02-18 12:53:00
5:53 AM,37.9,33.1,83,30.00,5.0,East,5.8,-,N/A,,Haze,90,2013-02-18 13:53:00
6:53 AM,37.9,33.1,83,29.98,5.0,East,4.6,-,0.00,Rain,Light Rain,90,2013-02-18 14:53:00
7:50 AM,37.4,33.8,87,29.96,4.0,East,4.6,-,0.00,,Overcast,90,2013-02-18 15:50:00
7:53 AM,37.9,34.0,86,29.96,3.0,East,3.5,-,0.00,,Overcast,90,2013-02-18 15:53:00
8:33 AM,39.2,33.8,81,29.95,4.0,East,3.5,-,N/A,,Haze,100,2013-02-18 16:33:00
8:53 AM,39.0,35.1,86,29.95,4.0,East,3.5,-,N/A,,Overcast,90,2013-02-18 16:53:00
9:15 AM,39.2,35.6,87,29.94,4.0,East,3.5,-,N/A,,Haze,90,2013-02-18 17:15:00
9:40 AM,41.0,35.6,81,29.93,4.0,East,4.6,-,N/A,,Haze,100,2013-02-18 17:40:00
9:53 AM,42.1,36.0,79,29.93,5.0,East,5.8,-,N/A,,Haze,100,2013-02-18 17:53:00
10:44 AM,42.8,35.6,76,29.91,2.5,SSE,6.9,-,0.00,Rain,Light Rain,150,2013-02-18 18:44:00
10:51 AM,42.8,35.6,76,29.91,3.0,SSE,6.9,-,0.00,Rain,Light Rain,150,2013-02-18 18:51:00
10:53 AM,43.0,36.0,76,29.92,3.0,SE,4.6,-,0.00,Rain,Light Rain,140,2013-02-18 18:53:00
11:12 AM,42.8,37.4,81,29.91,3.0,Variable,3.5,-,0.01,Rain,Light Rain,0,2013-02-18 19:12:00
11:27 AM,42.8,37.4,81,29.90,1.8,Variable,4.6,-,0.02,Rain,Light Rain,0,2013-02-18 19:27:00
11:43 AM,42.8,37.4,81,29.90,2.5,SE,5.8,-,0.03,Rain,Light Rain,140,2013-02-18 19:43:00
11:53 AM,43.0,37.9,82,29.90,2.0,SE,5.8,-,0.03,Rain,Light Rain,130,2013-02-18 19:53:00
12:22 PM,44.6,39.2,81,29.88,3.0,Variable,5.8,-,0.01,Rain,Light Rain,0,2013-02-18 20:22:00
12:29 PM,44.6,39.2,81,29.88,2.0,Variable,3.5,-,0.01,Rain,Light Rain,0,2013-02-18 20:29:00
12:48 PM,44.6,39.2,81,29.87,3.0,SE,6.9,-,0.02,Rain,Light Rain,140,2013-02-18 20:48:00
12:53 PM,45.0,39.9,82,29.87,3.0,SSE,8.1,-,0.02,Rain,Light Rain,150,2013-02-18 20:53:00
1:02 PM,44.6,39.2,81,29.86,3.0,SSE,6.9,-,0.00,Rain,Light Rain,150,2013-02-18 21:02:00
1:53 PM,44.1,37.0,76,29.84,3.0,Variable,5.8,17.3,0.00,Rain,Light Rain,0,2013-02-18 21:53:00
2:10 PM,44.6,37.4,76,29.83,2.0,SE,5.8,-,0.00,Rain,Light Rain,130,2013-02-18 22:10:00
2:17 PM,44.6,37.4,76,29.83,3.0,SE,8.1,-,0.00,Rain,Light Rain,130,2013-02-18 22:17:00
2:24 PM,44.6,37.4,76,29.83,3.0,SE,10.4,-,0.00,Rain,Light Rain,130,2013-02-18 22:24:00
2:31 PM,42.8,37.4,81,29.83,1.8,SE,8.1,-,0.01,Rain,Light Rain,140,2013-02-18 22:31:00
2:48 PM,42.8,37.4,81,29.82,3.0,SSE,6.9,18.4,0.02,Rain,Light Rain,160,2013-02-18 22:48:00
2:53 PM,44.6,37.4,76,29.82,4.0,SE,10.4,19.6,N/A,Rain,Light Rain,140,2013-02-18 22:53:00
3:00 PM,42.8,37.4,81,29.81,1.8,SSE,5.8,19.6,0.00,Rain,Light Rain,150,2013-02-18 23:00:00
3:13 PM,44.6,39.2,81,29.80,3.0,SE,10.4,-,0.01,Rain,Light Rain,130,2013-02-18 23:13:00
3:45 PM,44.6,39.2,81,29.79,4.0,SSE,10.4,16.1,0.01,,Haze,150,2013-02-18 23:45:00
3:53 PM,44.1,37.9,79,29.79,2.5,Variable,5.8,16.1,0.01,Rain,Light Rain,0,2013-02-18 23:53:00
4:05 PM,42.8,39.2,87,29.78,1.8,SSE,8.1,-,0.01,Rain,Light Rain,150,2013-02-19 00:05:00
4:23 PM,42.8,37.4,81,29.77,2.5,SE,5.8,-,0.03,Rain,Light Rain,140,2013-02-19 00:23:00
4:45 PM,42.8,37.4,81,29.77,1.8,SE,6.9,-,0.04,Rain,Light Rain,130,2013-02-19 00:45:00
4:53 PM,43.0,37.9,82,29.76,1.8,SE,8.1,-,0.04,Rain,Light Rain,130,2013-02-19 00:53:00
5:01 PM,42.8,37.4,81,29.76,2.5,SE,6.9,-,0.01,Rain,Light Rain,140,2013-02-19 01:01:00
5:08 PM,42.8,37.4,81,29.75,3.0,SE,6.9,-,N/A,Rain,Light Rain,130,2013-02-19 01:08:00
5:31 PM,42.8,37.4,81,29.75,2.5,SE,10.4,-,0.02,Rain,Light Rain,140,2013-02-19 01:31:00
5:45 PM,42.8,37.4,81,29.74,3.0,SE,9.2,17.3,0.02,Rain,Light Rain,140,2013-02-19 01:45:00
5:53 PM,42.1,37.9,85,29.74,4.0,SE,10.4,19.6,0.03,Rain,Light Rain,140,2013-02-19 01:53:00
6:05 PM,42.8,37.4,81,29.74,2.5,SE,8.1,18.4,0.02,Rain,Light Rain,130,2013-02-19 02:05:00
6:24 PM,42.8,37.4,81,29.73,3.0,SE,6.9,-,0.05,Rain,Light Rain,140,2013-02-19 02:24:00
6:33 PM,42.8,37.4,81,29.73,2.5,SE,6.9,-,0.06,Rain,Light Rain,140,2013-02-19 02:33:00
6:53 PM,42.1,37.0,82,29.73,2.0,SE,6.9,-,0.12,Rain,Rain,140,2013-02-19 02:53:00
7:36 PM,41.0,37.4,87,29.72,2.0,Variable,5.8,-,0.12,Rain,Rain,0,2013-02-19 03:36:00
7:43 PM,41.0,37.4,87,29.72,2.0,Variable,3.5,-,0.14,Rain,Rain,0,2013-02-19 03:43:00
7:53 PM,41.0,37.0,86,29.73,2.0,Calm,Calm,-,0.18,Rain,Rain,0,2013-02-19 03:53:00
8:01 PM,41.0,35.6,81,29.72,1.8,Calm,Calm,-,0.03,Rain,Rain,0,2013-02-19 04:01:00
8:53 PM,39.9,36.0,86,29.72,2.0,Variable,3.5,-,0.16,Rain,Light Rain,0,2013-02-19 04:53:00
9:08 PM,41.0,35.6,81,29.71,4.0,NNE,3.5,-,0.01,Rain,Light Rain,30,2013-02-19 05:08:00
9:53 PM,42.1,36.0,79,29.72,5.0,SE,6.9,-,0.01,Rain,Light Rain,130,2013-02-19 05:53:00
10:53 PM,41.0,36.0,82,29.72,6.0,SE,4.6,-,0.00,,Haze,130,2013-02-19 06:53:00
11:53 PM,41.0,36.0,82,29.72,6.0,Variable,3.5,-,N/A,,Haze,0,2013-02-19 07:53:00